TimeAST,TemperatureF,Dew PointF,Humidity,Sea Level PressureIn,VisibilityMPH,Wind Direction,Wind SpeedMPH,Gust SpeedMPH,PrecipitationIn,Events,Conditions,WindDirDegrees,DateUTC
2:00 AM,75,73,92,30.01,10,Calm,Calm,,,,Scattered Clouds,,2013-05-29 06:00:00
2:00 AM,75.2,73.4,94,30.01,6.2,Calm,Calm,-,N/A,,Scattered Clouds,0,2013-05-29 06:00:00
5:00 AM,76,73,89,29.99,10,SE,4.5,,,,Scattered Clouds,140,2013-05-29 09:00:00
5:00 AM,75.2,73.4,94,29.98,6.2,SE,4.6,-,N/A,,Scattered Clouds,140,2013-05-29 09:00:00
8:00 AM,77.0,75.2,94,30.01,6.2,Calm,Calm,-,N/A,,Mostly Cloudy,0,2013-05-29 12:00:00
9:00 AM,80.6,73.4,79,30.01,6.2,SE,5.8,-,N/A,,Scattered Clouds,140,2013-05-29 13:00:00
10:00 AM,86.0,77.0,74,29.98,6.2,ESE,9.2,-,N/A,Fog,Fog,120,2013-05-29 14:00:00
11:00 AM,,,,,10,SE,13.4,,,,,130,2013-05-29 15:00:00
11:00 AM,86.0,75.2,70,30.01,6.2,SE,13.8,-,N/A,,Scattered Clouds,130,2013-05-29 15:00:00
12:00 PM,86.0,77.0,74,30.01,6.2,ESE,6.9,-,N/A,,Mostly Cloudy,120,2013-05-29 16:00:00
1:00 PM,86.0,77.0,74,30.01,6.2,ESE,13.8,-,N/A,,Mostly Cloudy,110,2013-05-29 17:00:00
2:00 PM,87,76,64,29.99,10,ESE,8.9,,,,Scattered Clouds,120,2013-05-29 18:00:00
2:00 PM,86.0,77.0,74,30.01,6.2,ESE,9.2,-,N/A,Fog,Fog,120,2013-05-29 18:00:00
3:00 PM,87.8,77.0,70,29.98,6.2,East,13.8,-,N/A,,Scattered Clouds,100,2013-05-29 19:00:00
4:00 PM,86.0,77.0,74,29.95,6.2,ESE,11.5,-,N/A,,Mostly Cloudy,120,2013-05-29 20:00:00
5:00 PM,85,76,69,29.97,10,ESE,15.7,,,,Partly Cloudy,120,2013-05-29 21:00:00
5:00 PM,84.2,77.0,79,29.95,6.2,ESE,16.1,-,N/A,,Mostly Cloudy,120,2013-05-29 21:00:00
6:00 PM,82.4,75.2,79,29.98,6.2,East,11.5,-,N/A,,Mostly Cloudy,100,2013-05-29 22:00:00
7:00 PM,78.8,73.4,83,29.98,6.2,East,5.8,-,N/A,,Mostly Cloudy,80,2013-05-29 23:00:00
8:00 PM,77.0,73.4,89,30.01,6.2,Calm,Calm,-,N/A,,Mostly Cloudy,0,2013-05-30 00:00:00
11:00 PM,77.0,75.2,94,30.06,0.2,North,-9999.0,-,N/A,,Mostly Cloudy,0,2013-05-30 03:00:00